STARLINK-32400, 61669

Orbit data source: Space-Track

STARLINK-32400, 61669 is a payload satellite owned by SpaceX/Seattle (US) in LEO that was launched on Sat, 26 Oct 2024 UTC via an FALCON 9 launch vehicle from the Air Force Eastern Test Range (AFETR). Payload-class satellites include a variety of spacecraft equipped with specific instruments for various scientific and technological missions. These include communications satellites like Starlink; space stations such as the ISS; scientific satellites like the Hubble; Earth observation satellites from companies like Planet Labs, Umbra, and HawkEye 360; GPS; miniature CubeSats for education and research; and military/defense satellites.

Loading next visibility...
Identifier
61669, 2024-193J
Orbit
LEO
Last TLE update
22 hours ago
Origin
Manufacturer
SpaceX/Seattle
Mission
Operational Commercial Communications
Bus & Motor
STARLINK V2M, Unknown motor
Mass
730 kg wet, ~700 kg dry
Launch date (UTC)
2024-10-26 (8 months ago)
Launch vehicle
FALCON 9
Launch site
Air Force Eastern Test Range (AFETR)
Object type
Payload
Rocket body
Debris
Shape & HBR
Box + 2 Pan, 29 m
Radar Cross Section
36.964 m², Large (>1 m²)

Expand to show TLE details & history

TLE from 22 hours ago
0 STARLINK-32400
1 61669U 24193J   25181.48148111  .00000295  00000-0  22077-4 0  9990
2 61669  53.1592 180.2739 0001138  84.4002 275.7129 15.30196976 37949
Epoch: 2025-06-30T11:33Z
TLE epoch observation values (Epoch: 2025-06-30T11:33:19.967Z)
Latitude
-0°
Longitude
88.15004°
Altitude
476.046 km
Speed
7.629 km/s
True Right ascension
12h 01m 05s
True Declination
0° 00' 00"
Sunlit
Object was in daylight at epoch
Visualization orbit readout
Latitude
-45.71995°
Longitude
34.1333°
Altitude
491.421 km
Speed
7.619 km/s
Apparent Right ascension
08h 38m 33s
Apparent Declination
-42° 47' 26"
Sunlit
Object is in daylight
Visualization observer readout
Local Sidereal Time
20:51:48
Azimuth
140.199° SSE
Elevation
-86.199°
Doppler factor
1
Orbital elements
Apogee altitude
476.261 km
Perigee altitude
474.701 km
Semi-major axis
6,853.618 km
Eccentricity
0.00011
Inclination
53.1592°
RAAN
180.2739°
Arg. of periapsis
84.4002°
True anomaly
Unknown
Mean anomaly
275.7129°
Eccentric anomaly
Unknown
Mean motion
3.82528 °/min
Orbital period
94.11 mins
BSTAR
0.000022077
Loading maneuver chart data...
Loading SW <> Apogee altitude chart data...
Loading historical data...
Loading historical data...
Loading historical data...
Loading historical data...
Loading historical data...
Loading historical data...
Loading historical data...

STARLINK-32400 Visibility forecast

Observer location: undefined°, undefined°

Span
Click to sort rows by Start time (UTC) header in descending order
Start Az.
Max El. time (UTC)
Max El. Az.
Max El.
End time (UTC)
End Az.
6 mins2025-07-01 10:01:33.785Z293.451° NW2025-07-01 10:04:33.785Z217.871° SW33.369°2025-07-01 10:07:33.785Z156.366° SSE
4 mins2025-07-02 01:20:33.785Z166.323° S2025-07-02 01:22:33.785Z121.867° SE20.222°2025-07-02 01:24:33.785Z84.037° E
5 mins2025-07-02 02:57:33.785Z259.545° W2025-07-02 02:59:33.785Z305.616° NW33.678°2025-07-02 03:02:33.785Z33.57° NE
4 mins2025-07-02 07:55:33.785Z354.938° N2025-07-02 07:56:33.785Z19.28° NNE22.564°2025-07-02 07:59:33.785Z81.072° E
|